FW9676 Weather Reports


Display with metric or nautical units.
time (UTC)temp
F
wind
direction
speed
MPH
gust
MPH
rain 1hr
in
rain 24hr
in
rain mn
in
humidity
%
barometer
mb
20260504234534 64 281 5.0 13.0 0.00 0.00 0.00 75 1015.0
20260504234009 64 216 6.0 14.0 0.00 0.00 0.00 74 1015.0
20260504233510 64 268 6.0 16.0 0.00 0.00 0.00 74 1014.9
20260504233028 64 228 5.0 16.0 0.00 0.00 0.00 73 1014.9
20260504232511 65 223 7.0 16.0 0.00 0.00 0.00 72 1014.7
20260504232010 66 218 5.0 15.0 0.00 0.00 0.00 71 1014.7
20260504231528 66 227 7.0 16.0 0.00 0.00 0.00 71 1014.6
20260504231012 65 304 6.0 16.0 0.00 0.00 0.00 72 1014.6
20260504230513 65 248 5.0 17.0 0.00 0.00 0.00 72 1014.6
20260504230030 65 252 8.0 17.0 0.00 0.00 0.00 72 1014.6
20260504225510 65 248 11.0 17.0 0.00 0.00 0.00 71 1014.9
20260504225017 65 277 7.0 16.0 0.00 0.00 0.00 70 1014.8
20260504224530 66 246 9.0 16.0 0.00 0.00 0.00 69 1014.9
20260504224012 66 207 6.0 15.0 0.00 0.00 0.00 71 1015.0
20260504223509 66 279 7.0 16.0 0.00 0.00 0.00 71 1014.9
20260504223029 66 280 7.0 16.0 0.00 0.00 0.00 73 1015.2
20260504222512 66 184 7.0 15.0 0.00 0.00 0.00 73 1015.2
20260504222016 66 272 6.0 15.0 0.00 0.00 0.00 74 1015.2
20260504221529 66 261 7.0 15.0 0.00 0.00 0.00 74 1015.2
20260504221010 66 257 7.0 16.0 0.00 0.00 0.00 73 1015.4
20260504220512 66 300 5.0 16.0 0.00 0.00 0.00 73 1015.4
20260504220039 66 258 7.0 19.0 0.00 0.00 0.00 74 1015.5
20260504215514 66 212 7.0 19.0 0.00 0.00 0.00 74 1015.6
20260504215012 65 249 8.0 18.0 0.00 0.00 0.00 75 1015.5
20260504214535 65 227 7.0 15.0 0.00 0.00 0.00 74 1015.7
20260504214017 65 213 7.0 15.0 0.00 0.00 0.00 75 1015.8
20260504213511 65 288 8.0 15.0 0.00 0.00 0.00 75 1015.9
20260504213035 65 215 7.0 15.0 0.00 0.00 0.00 74 1016.0
20260504212514 65 217 6.0 19.0 0.00 0.00 0.00 75 1016.0
20260504212017 66 242 6.0 19.0 0.00 0.00 0.00 75 1015.9
20260504211535 66 240 7.0 19.0 0.00 0.00 0.00 73 1016.1
20260504211013 66 208 5.0 15.0 0.00 0.00 0.00 73 1016.1
20260504210510 66 277 6.0 16.0 0.00 0.00 0.00 74 1016.1
20260504210030 66 209 6.0 16.0 0.00 0.00 0.00 74 1016.0
20260504205514 66 236 6.0 16.0 0.00 0.00 0.00 72 1016.0
20260504205011 66 236 6.0 17.0 0.00 0.00 0.00 73 1016.1
20260504204530 66 263 5.0 17.0 0.00 0.00 0.00 73 1016.0
20260504204011 66 259 6.0 14.0 0.00 0.00 0.00 73 1015.9
20260504203513 66 241 6.0 14.0 0.00 0.00 0.00 74 1016.0
20260504203029 66 269 4.0 15.0 0.00 0.00 0.00 74 1016.0
20260504202513 66 259 7.0 15.0 0.00 0.00 0.00 74 1016.0
20260504202009 66 255 6.0 12.0 0.00 0.00 0.00 72 1016.0
20260504201532 66 194 4.0 12.0 0.00 0.00 0.00 73 1015.9
20260504201011 66 222 5.0 13.0 0.00 0.00 0.00 74 1016.0
20260504200512 66 232 5.0 13.0 0.00 0.00 0.00 73 1016.1
20260504200030 66 234 6.0 13.0 0.00 0.00 0.00 73 1016.2
20260504195512 66 263 5.0 12.0 0.00 0.00 0.00 72 1016.2
20260504195012 66 265 6.0 14.0 0.00 0.00 0.00 72 1016.1
20260504194532 66 263 5.0 14.0 0.00 0.00 0.00 72 1016.0
20260504194010 67 252 4.0 13.0 0.00 0.00 0.00 70 1016.2
20260504193511 66 218 3.0 13.0 0.00 0.00 0.00 72 1016.1
20260504193028 66 254 5.0 13.0 0.00 0.00 0.00 72 1016.2
20260504192509 66 286 4.0 13.0 0.00 0.00 0.00 72 1016.3
20260504192014 66 221 6.0 12.0 0.00 0.00 0.00 71 1016.3
20260504191530 66 230 7.0 12.0 0.00 0.00 0.00 71 1016.2
20260504191010 66 227 4.0 11.0 0.00 0.00 0.00 71 1016.2
20260504190513 66 193 5.0 11.0 0.00 0.00 0.00 70 1016.2
20260504190032 65 267 5.0 11.0 0.00 0.00 0.00 72 1016.1
20260504185515 65 227 5.0 10.0 0.00 0.00 0.00 71 1016.2
20260504185017 65 245 4.0 10.0 0.00 0.00 0.00 71 1016.3
20260504184535 65 233 4.0 10.0 0.00 0.00 0.00 71 1016.3
20260504184012 65 257 4.0 10.0 0.00 0.00 0.00 71 1016.4
20260504183516 65 193 5.0 12.0 0.00 0.00 0.00 73 1016.4
20260504183030 65 253 5.0 14.0 0.00 0.00 0.00 73 1016.3
20260504182510 65 296 5.0 15.0 0.00 0.00 0.00 72 1016.5
20260504182011 65 224 7.0 15.0 0.00 0.00 0.00 72 1016.4
20260504181536 65 286 6.0 15.0 0.00 0.00 0.00 73 1016.6
20260504181015 65 248 4.0 9.0 0.00 0.00 0.00 74 1016.4
20260504180513 64 200 4.0 9.0 0.00 0.00 0.00 74 1016.5
20260504180030 64 216 4.0 11.0 0.00 0.00 0.00 75 1016.4
20260504175512 64 209 4.0 11.0 0.00 0.00 0.00 74 1016.5
20260504175010 64 216 6.0 13.0 0.00 0.00 0.00 73 1016.5
20260504174530 64 223 5.0 13.0 0.00 0.00 0.00 73 1016.5
20260504174011 64 216 4.0 13.0 0.00 0.00 0.00 74 1016.4
20260504173511 64 275 5.0 12.0 0.00 0.00 0.00 75 1016.4
20260504173033 64 251 5.0 12.0 0.00 0.00 0.00 74 1016.3
20260504172512 64 215 3.0 15.0 0.00 0.00 0.00 74 1016.3
20260504172014 64 263 7.0 15.0 0.00 0.00 0.00 73 1016.2
20260504171534 64 215 6.0 15.0 0.00 0.00 0.00 73 1016.1
20260504171014 64 242 5.0 10.0 0.00 0.00 0.00 73 1016.1
20260504170514 64 271 4.0 10.0 0.00 0.00 0.00 73 1016.0
20260504151011 60 258 4.0 10.0 0.00 0.00 0.00 78 1015.3
20260504150513 59 272 4.0 10.0 0.00 0.00 0.00 77 1015.4
20260504141013 58 275 7.0 12.0 0.00 0.00 0.00 83 1015.1
20260504140510 58 279 5.0 10.0 0.00 0.00 0.00 82 1015.0
20260504130515 58 240 2.0 7.0 0.00 0.00 0.00 81 1015.1
20260504110510 58 275 2.0 8.0 0.00 0.00 0.00 80 1014.6
20260504100514 58 242 3.0 8.0 0.00 0.00 0.00 80 1014.5
20260504081535 58 275 0.0 3.0 0.00 0.00 0.00 83 1015.3
20260504081011 58 0 1.0 3.0 0.00 0.00 0.00 82 1015.7
20260504080514 58 265 1.0 6.0 0.00 0.00 0.00 82 1015.7
20260504050513 60 247 2.0 10.0 0.00 0.00 0.00 81 1015.0
20260504045512 59 269 3.0 10.0 0.00 0.00 0.00 81 1015.1
20260504045010 60 0 1.0 7.0 0.00 0.00 0.00 81 1015.2
20260504044531 60 209 2.0 7.0 0.00 0.00 0.00 81 1015.1
20260504044012 60 262 1.0 10.0 0.00 0.00 0.00 82 1015.1
20260504043514 59 261 3.0 10.0 0.00 0.00 0.00 81 1015.1
20260504043030 60 261 4.0 8.0 0.00 0.00 0.00 81 1015.1
20260504042513 60 269 2.0 9.0 0.00 0.00 0.00 82 1014.9
20260504042011 60 262 4.0 9.0 0.00 0.00 0.00 82 1015.0
20260504041531 60 257 3.0 9.0 0.00 0.00 0.00 82 1015.0
20260504041013 60 265 4.0 9.0 0.00 0.00 0.00 83 1014.7
20260504040513 60 266 4.0 9.0 0.00 0.00 0.00 82 1014.9
20260504040031 60 257 2.0 9.0 0.00 0.00 0.00 82 1014.8
20260504035513 60 242 3.0 9.0 0.00 0.00 0.00 82 1014.6
20260504035010 60 259 4.0 9.0 0.00 0.00 0.00 80 1014.4
20260504034534 60 222 4.0 9.0 0.00 0.00 0.00 80 1014.5
20260504034012 60 250 4.0 9.0 0.00 0.00 0.00 80 1014.5
20260504033512 60 270 3.0 8.0 0.00 0.00 0.00 80 1014.6
20260504033044 60 232 2.0 9.0 0.00 0.00 0.00 80 1014.3
20260504032513 60 217 4.0 9.0 0.00 0.00 0.00 79 1014.4
20260504032012 60 277 2.0 10.0 0.00 0.00 0.00 79 1014.2
20260504031533 61 219 3.0 10.0 0.00 0.00 0.00 79 1014.2
20260504031010 61 207 2.0 8.0 0.00 0.00 0.00 79 1014.1
20260504030513 60 259 2.0 9.0 0.00 0.00 0.00 78 1014.0
20260504030031 60 266 2.0 9.0 0.00 0.00 0.00 79 1014.0
20260504025514 60 248 3.0 12.0 0.00 0.00 0.00 79 1013.9
20260504025015 61 277 5.0 12.0 0.00 0.00 0.00 79 1014.0
20260504024541 61 280 4.0 11.0 0.00 0.00 0.00 79 1013.8
20260504024015 61 254 3.0 11.0 0.00 0.00 0.00 79 1013.9
20260504023510 61 243 5.0 11.0 0.00 0.00 0.00 78 1013.9
20260504023030 61 259 3.0 9.0 0.00 0.00 0.00 78 1013.8
20260504022513 61 261 4.0 11.0 0.00 0.00 0.00 78 1013.9
20260504022017 61 240 4.0 11.0 0.00 0.00 0.00 78 1013.9
20260504021530 61 217 4.0 11.0 0.00 0.00 0.00 78 1013.7
20260504021012 61 232 4.0 11.0 0.00 0.00 0.00 78 1013.6
20260504020513 61 244 5.0 14.0 0.00 0.00 0.00 78 1013.7
20260504020030 61 251 5.0 14.0 0.00 0.00 0.00 78 1013.6
20260504015514 61 264 4.0 14.0 0.00 0.00 0.00 77 1013.7
20260504015014 61 258 6.0 14.0 0.00 0.00 0.00 78 1013.7
20260504014530 61 240 5.0 12.0 0.00 0.00 0.00 78 1013.5
20260504014016 61 258 5.0 13.0 0.00 0.00 0.00 78 1013.3
20260504013513 61 208 4.0 13.0 0.00 0.00 0.00 78 1013.6
20260504013030 61 267 5.0 13.0 0.00 0.00 0.00 77 1013.4
20260504012510 62 256 4.0 12.0 0.00 0.00 0.00 77 1013.3
20260504012013 62 252 5.0 12.0 0.00 0.00 0.00 77 1013.4
20260504011530 62 248 4.0 12.0 0.00 0.00 0.00 77 1013.5
20260504011012 62 269 2.0 11.0 0.00 0.00 0.00 78 1013.4
20260504010515 62 211 5.0 11.0 0.00 0.00 0.00 77 1013.3
20260504010030 62 273 4.0 12.0 0.00 0.00 0.00 77 1013.3
20260504005514 62 270 5.0 12.0 0.00 0.00 0.00 77 1013.3
20260504005015 62 217 5.0 10.0 0.00 0.00 0.00 77 1013.2
20260504004541 62 246 3.0 11.0 0.00 0.00 0.00 77 1013.2
20260504004014 62 257 4.0 11.0 0.00 0.00 0.00 77 1013.2
20260504003513 62 275 3.0 12.0 0.00 0.00 0.00 77 1013.3
20260504003030 63 223 5.0 13.0 0.00 0.00 0.00 77 1013.1
20260504002514 63 240 2.0 13.0 0.00 0.00 0.00 77 1013.2
20260504002014 62 227 5.0 13.0 0.00 0.00 0.00 77 1013.2
20260504001529 63 267 5.0 12.0 0.00 0.00 0.00 77 1013.3
20260504001017 63 246 3.0 12.0 0.00 0.00 0.00 77 1013.3
20260504000517 63 258 6.0 11.0 0.00 0.00 0.00 77 1013.2
20260504000030 63 254 2.0 13.0 0.00 0.00 0.00 78 1013.1
20260503235513 63 259 4.0 13.0 0.00 0.00 0.00 78 1013.1
20260503235010 63 269 5.0 13.0 0.00 0.00 0.00 77 1013.1